TimeCST,TemperatureF,Dew PointF,Humidity,Sea Level PressureIn,VisibilityMPH,Wind Direction,Wind SpeedMPH,Gust SpeedMPH,PrecipitationIn,Events,Conditions,WindDirDegrees,DateUTC
12:15 AM,8.6,1.4,73,30.00,10.0,NW,13.8,17.3,N/A,,Overcast,320,2012-12-10 06:15:00
12:35 AM,8.6,3.2,79,30.00,10.0,NW,12.7,19.6,N/A,,Overcast,320,2012-12-10 06:35:00
12:55 AM,8.6,1.4,73,29.99,10.0,NW,13.8,17.3,N/A,,Overcast,320,2012-12-10 06:55:00
1:15 AM,8.6,1.4,73,29.99,10.0,NW,12.7,-,N/A,,Overcast,320,2012-12-10 07:15:00
1:55 AM,5.0,1.4,85,29.99,10.0,NW,13.8,-,N/A,,Overcast,310,2012-12-10 07:55:00
2:15 AM,5.0,-0.4,78,29.99,10.0,NW,11.5,-,N/A,,Overcast,320,2012-12-10 08:15:00
2:35 AM,3.2,-0.4,85,29.99,10.0,NW,9.2,-,N/A,,Overcast,310,2012-12-10 08:35:00
2:55 AM,3.2,-0.4,85,29.99,10.0,NW,10.4,-,N/A,,Overcast,310,2012-12-10 08:55:00
3:15 AM,1.4,-4.0,78,29.99,10.0,NW,9.2,-,N/A,,Mostly Cloudy,320,2012-12-10 09:15:00
3:35 AM,-0.4,-4.0,85,29.98,10.0,NW,12.7,-,N/A,,Scattered Clouds,320,2012-12-10 09:35:00
3:55 AM,-0.4,-5.8,78,29.98,10.0,NW,12.7,-,N/A,,Clear,320,2012-12-10 09:55:00
4:15 AM,-2.2,-5.8,85,29.98,10.0,NW,10.4,-,N/A,,Clear,320,2012-12-10 10:15:00
4:35 AM,-2.2,-5.8,85,29.98,10.0,NW,11.5,-,N/A,,Clear,320,2012-12-10 10:35:00
4:55 AM,-4.0,-7.6,85,29.98,10.0,NW,10.4,-,N/A,,Clear,320,2012-12-10 10:55:00
5:15 AM,-4.0,-7.6,85,29.98,10.0,NW,8.1,-,N/A,,Clear,320,2012-12-10 11:15:00
5:55 AM,-5.8,-9.4,84,29.96,10.0,NW,6.9,-,N/A,,Clear,320,2012-12-10 11:55:00
6:15 AM,-5.8,-9.4,84,29.96,10.0,NNW,5.8,-,N/A,,Clear,330,2012-12-10 12:15:00
6:35 AM,-5.8,-9.4,84,29.96,10.0,NNW,4.6,-,N/A,,Clear,330,2012-12-10 12:35:00
6:55 AM,-7.6,-9.4,92,29.96,10.0,NW,6.9,-,N/A,,Clear,310,2012-12-10 12:55:00
7:15 AM,-7.6,-9.4,92,29.95,10.0,NW,5.8,-,N/A,,Clear,320,2012-12-10 13:15:00
7:35 AM,-7.6,-9.4,92,29.96,2.5,Calm,Calm,-,N/A,,Clear,0,2012-12-10 13:35:00
7:55 AM,-7.6,-11.2,84,29.96,1.8,West,4.6,-,N/A,Snow,Light Snow,270,2012-12-10 13:55:00
8:15 AM,-9.4,-13.0,84,29.95,4.0,Calm,Calm,-,N/A,,Clear,0,2012-12-10 14:15:00
8:35 AM,-9.4,-13.0,84,29.95,2.0,West,5.8,-,N/A,,Clear,270,2012-12-10 14:35:00
8:55 AM,-7.6,-13.0,77,29.95,2.0,West,4.6,-,N/A,,Clear,280,2012-12-10 14:55:00
9:35 AM,-5.8,-9.4,84,29.96,10.0,West,5.8,-,N/A,,Clear,280,2012-12-10 15:35:00
9:55 AM,-4.0,-7.6,85,29.96,7.0,West,5.8,-,N/A,,Clear,280,2012-12-10 15:55:00
10:15 AM,-4.0,-7.6,85,29.95,3.0,WNW,4.6,-,N/A,,Clear,290,2012-12-10 16:15:00
10:55 AM,-0.4,-5.8,78,29.94,10.0,Calm,Calm,-,N/A,,Clear,0,2012-12-10 16:55:00
11:15 AM,1.4,-5.8,72,29.93,10.0,Calm,Calm,-,N/A,,Clear,0,2012-12-10 17:15:00
11:35 AM,1.4,-5.8,72,29.91,10.0,Calm,Calm,-,N/A,,Clear,0,2012-12-10 17:35:00
11:55 AM,3.2,-4.0,72,29.91,10.0,Calm,Calm,-,N/A,,Clear,0,2012-12-10 17:55:00
12:15 PM,3.2,-5.8,66,29.90,10.0,Calm,Calm,-,N/A,,Clear,0,2012-12-10 18:15:00
12:35 PM,3.2,-4.0,72,29.89,10.0,Calm,Calm,-,N/A,,Clear,0,2012-12-10 18:35:00
12:55 PM,3.2,-4.0,72,29.89,10.0,SSW,3.5,-,N/A,,Clear,210,2012-12-10 18:55:00
1:15 PM,3.2,-4.0,72,29.88,10.0,Calm,Calm,-,N/A,,Clear,0,2012-12-10 19:15:00
1:55 PM,3.2,-4.0,72,29.87,10.0,Calm,Calm,-,N/A,,Clear,0,2012-12-10 19:55:00
2:15 PM,3.2,-4.0,72,29.86,10.0,South,3.5,-,N/A,,Clear,190,2012-12-10 20:15:00
2:35 PM,5.0,-4.0,66,29.86,10.0,SW,4.6,-,N/A,,Clear,220,2012-12-10 20:35:00
2:55 PM,5.0,-4.0,66,29.85,10.0,Calm,Calm,-,N/A,,Clear,0,2012-12-10 20:55:00
3:15 PM,5.0,-4.0,66,29.85,10.0,Calm,Calm,-,N/A,,Clear,0,2012-12-10 21:15:00
3:35 PM,5.0,-4.0,66,29.85,10.0,Calm,Calm,-,N/A,,Clear,0,2012-12-10 21:35:00
3:55 PM,5.0,-4.0,66,29.84,10.0,Calm,Calm,-,N/A,,Clear,0,2012-12-10 21:55:00
4:15 PM,3.2,-4.0,72,29.83,10.0,ESE,3.5,-,N/A,,Clear,110,2012-12-10 22:15:00
4:35 PM,1.4,-5.8,72,29.83,10.0,Calm,Calm,-,N/A,,Clear,0,2012-12-10 22:35:00
4:55 PM,1.4,-5.8,72,29.83,10.0,Calm,Calm,-,N/A,,Clear,0,2012-12-10 22:55:00
5:15 PM,-0.4,-5.8,78,29.83,10.0,Calm,Calm,-,N/A,,Clear,0,2012-12-10 23:15:00
5:35 PM,-0.4,-5.8,78,29.83,10.0,Calm,Calm,-,N/A,,Clear,0,2012-12-10 23:35:00
5:55 PM,-4.0,-7.6,85,29.83,10.0,SE,3.5,-,N/A,,Clear,140,2012-12-10 23:55:00
6:15 PM,-2.2,-7.6,78,29.82,10.0,ESE,4.6,-,N/A,,Scattered Clouds,120,2012-12-11 00:15:00
6:35 PM,-2.2,-7.6,78,29.82,10.0,SE,4.6,-,N/A,,Mostly Cloudy,140,2012-12-11 00:35:00
6:55 PM,1.4,-4.0,78,29.82,10.0,SE,5.8,-,N/A,,Overcast,140,2012-12-11 00:55:00
7:15 PM,-0.4,-4.0,85,29.82,10.0,SSE,4.6,-,N/A,,Overcast,160,2012-12-11 01:15:00
7:35 PM,1.4,-4.0,78,29.82,10.0,SSE,6.9,-,N/A,,Overcast,160,2012-12-11 01:35:00
7:55 PM,1.4,-5.8,72,29.81,10.0,SSE,6.9,-,N/A,,Overcast,150,2012-12-11 01:55:00
8:15 PM,1.4,-5.8,72,29.81,10.0,SSE,5.8,-,N/A,,Overcast,160,2012-12-11 02:15:00
8:35 PM,3.2,-4.0,72,29.80,10.0,SSE,6.9,-,N/A,,Overcast,150,2012-12-11 02:35:00
8:55 PM,3.2,-4.0,72,29.80,10.0,SSE,5.8,-,N/A,,Overcast,150,2012-12-11 02:55:00
9:15 PM,3.2,-4.0,72,29.79,10.0,SE,5.8,-,N/A,,Overcast,140,2012-12-11 03:15:00
9:35 PM,3.2,-2.2,78,29.79,10.0,SSE,4.6,-,N/A,,Overcast,160,2012-12-11 03:35:00
9:55 PM,3.2,-2.2,78,29.78,10.0,SSE,6.9,-,N/A,,Overcast,160,2012-12-11 03:55:00
10:15 PM,5.0,-0.4,78,29.78,10.0,SSE,5.8,-,N/A,,Overcast,160,2012-12-11 04:15:00
10:35 PM,5.0,-0.4,78,29.77,10.0,South,4.6,-,N/A,Snow,Light Snow,170,2012-12-11 04:35:00
10:55 PM,3.2,-0.4,85,29.77,5.0,SSE,3.5,-,N/A,Snow,Light Snow,150,2012-12-11 04:55:00
11:15 PM,3.2,-0.4,85,29.77,10.0,South,4.6,-,N/A,Snow,Light Snow,170,2012-12-11 05:15:00
11:55 PM,3.2,-0.4,85,29.77,10.0,South,4.6,-,N/A,,Mostly Cloudy,180,2012-12-11 05:55:00